This is the latest recevied weather packets stored in our database for station/object VK2EHQ. If no packets are shown the sender has not sent any weather packets the latest 10 day(s).
| Time | Temp. | Humidity | Pressure | Rain* | Wind** | Luminosity | Snow |
|---|---|---|---|---|---|---|---|
| 1788162696 | 17.22° C | 64% | 1029.6 hPa | 0 mm | - | - | - |
| 1788162097 | 17.78° C | 65% | 1029.6 hPa | 0 mm | - | - | - |
| 1788161495 | 17.78° C | 65% | 1029.5 hPa | 0 mm | - | - | - |
| 1788160895 | 18.33° C | 64% | 1029.5 hPa | 0 mm | - | - | - |
| 1788160295 | 18.89° C | 64% | 1029.4 hPa | 0 mm | - | - | - |
| 1788159695 | 18.89° C | 63% | 1029.4 hPa | 0 mm | - | - | - |
| 1788159095 | 19.44° C | 62% | 1029.3 hPa | 0 mm | - | - | - |
| 1788158495 | 20° C | 61% | 1029.1 hPa | 0 mm | - | - | - |
| 1788157895 | 20° C | 60% | 1029 hPa | 0 mm | - | - | - |
| 1788157295 | 20.56° C | 60% | 1029.1 hPa | 0 mm | - | - | - |
| 1788156695 | 20.56° C | 59% | 1029 hPa | 0 mm | - | - | - |
| 1788156095 | 21.11° C | 60% | 1029 hPa | 0 mm | - | - | - |
| 1788155495 | 21.11° C | 59% | 1029 hPa | 0 mm | - | - | - |
| 1788154894 | 21.67° C | 58% | 1029.1 hPa | 0 mm | - | - | - |
| 1788154294 | 22.22° C | 56% | 1029.1 hPa | 0 mm | - | - | - |
| 1788153695 | 22.22° C | 56% | 1029.1 hPa | 0 mm | - | - | - |
| 1788153094 | 22.22° C | 54% | 1029.1 hPa | 0 mm | - | - | - |
| 1788152494 | 22.22° C | 51% | 1029.1 hPa | 0 mm | - | - | - |
| 1788151895 | 22.22° C | 47% | 1029.1 hPa | 0 mm | - | - | - |
| 1788151294 | 22.78° C | 45% | 1029.1 hPa | 0 mm | - | - | - |
| 1788150694 | 22.78° C | 45% | 1029.2 hPa | 0 mm | - | - | - |
| 1788150094 | 22.78° C | 45% | 1029.3 hPa | 0 mm | - | - | - |
| 1788149494 | 22.78° C | 45% | 1029.3 hPa | 0 mm | - | - | - |
| 1788148894 | 22.78° C | 43% | 1029.4 hPa | 0 mm | - | - | - |
| 1788148294 | 23.33° C | 42% | 1029.5 hPa | 0 mm | - | - | - |
* Rain latest hour (hover to see other rain measurements)
** Current wind speed in m/s (hover to see current wind gust speed)